FENGYUN 1C DEB

Satellite information

Favourite Embed

Satellite Type and Status

DEBRISIN ORBIT

Key statistics

Satellite FENGYUN 1C DEB at a glance.

Uptime

9619

Days in orbit

Revolutions

≈ 14.3

Per day

Orbit

SSO

Sun Synchronous Orbit

Inclination

99.2

Latest

Satellite identification and parameters

Extended collection of information and parameters for FENGYUN 1C DEB.

Object identification

Identified? True

Debris? True

Object name: FENGYUN 1C DEB

International designator: 1999-025BHX

Object number (NORAD): 31169

Object ID (CCSDS): 31169

Country: PEOPLES REPUBLIC OF CHINA (PRC)

Current information (Y/N): Y

RCS size: SMALL

Orbital parameters

Period: 101.039 minutes

Inclination: 99.167 deg

SMA: 7185.981 km

Apoapsis: 849.119 km

Periapsis: 766.573 km

RAAN: 272.1012 deg

Eccentricy: 0.00574358

Argument of periapsis: 295.0893 deg

Mean anomaly: 64.4331 deg

Mean motion: 14.25193 rev/day

Mean motion (dot): 0.00006948 rev/day2

B* drag term: 0.002924434 1/REarth

Two-line elements (TLE)

Creation date: Sept. 7, 2025, 9:49 a.m.

Reference frame: TEME

Reference center: EARTH

Epoch: Sept. 7, 2025, 12:37 a.m. UTC

TLE line 0: 0 FENGYUN 1C DEB

TLE line 1: 1 31169U 99025BHX 25250.02633326 .00006948 00000-0 29244-2 0 9994

TLE line 2: 2 31169 99.1670 272.1012 0057436 295.0893 64.4331 14.25193000557261

Live tracking on map

Real-time ground track for satellite FENGYUN 1C DEB.

In-orbit conjunctions

A list of the most updated potential collisions computed for object FENGYUN 1C DEB.

Target Orbit TCA Probability of collision Miss distance Type
SL-14 DEB LEO 2024-11-10 01:18:34 0.0002870054 89.0 (m) DEBRIS

Associated space launch

Chinese polar orbiting meteorological satellite

FENGYUN 1C DEB was lifted into orbit during the mission ‘Long March 4B | Feng Yun 1C’, on board a Long March 4B space rocket.

The launch took place on May 10, 1999, 1:33 a.m. from Launch Complex 7.

For more information about the launch, click the button.

Launch to space Long March 4B | Feng Yun 1C
Long March 4B | Feng Yun 1C

Agency: N/A

Status: Launch Successful

Launch date: May 10, 1999, 1:33 a.m. UTC

Rocket: Long March 4B

Launch pad: Launch Complex 7

Location: Taiyuan Satellite Launch Center, People's Republic of China

...

Latest news about this satellite

There are no fresh news available about this satellite. Check back as we update our databases every day.


Newsletter sign-up

Weekly statistics, charts and insights to help you stay on top of the space industry.